This is the latest recevied weather packets stored in our database for station/object MB7UUE. If no packets are shown the sender has not sent any weather packets the latest 10 day(s).
| Time | Temp. | Humidity | Pressure | Rain* | Wind** | Luminosity | Snow |
|---|---|---|---|---|---|---|---|
| 1777607040 | 10° C | 61% | 1020.6 hPa | 0 mm | - | - | - |
| 1777605899 | 10° C | 60% | 1020.6 hPa | 0 mm | - | - | - |
| 1777604758 | 10° C | 62% | 1020.7 hPa | 0 mm | - | - | - |
| 1777603620 | 10.56° C | 63% | 1020.8 hPa | 0 mm | - | - | - |
| 1777602478 | 10.56° C | 64% | 1020.8 hPa | 0 mm | - | - | - |
| 1777601339 | 10.56° C | 64% | 1020.9 hPa | 0 mm | - | - | - |
| 1777600199 | 10.56° C | 64% | 1021.1 hPa | 0 mm | - | - | - |
| 1777599059 | 10.56° C | 63% | 1021.2 hPa | 0 mm | - | - | - |
| 1777598419 | 10.56° C | 63% | 1021.2 hPa | 0 mm | - | - | - |
| 1777597920 | 10.56° C | 63% | 1021.2 hPa | 0 mm | - | - | - |
| 1777596780 | 11.11° C | 63% | 1021.2 hPa | 0 mm | - | - | - |
| 1777595640 | 11.67° C | 63% | 1021.2 hPa | 0 mm | - | - | - |
| 1777594500 | 11.67° C | 63% | 1021.3 hPa | 0 mm | - | - | - |
| 1777594500 | 11.67° C | 63% | 1021.3 hPa | 0 mm | - | - | - |
| 1777593360 | 11.67° C | 63% | 1021.2 hPa | 0 mm | - | - | - |
| 1777592220 | 12.22° C | 63% | 1021.2 hPa | 0 mm | - | - | - |
| 1777591081 | 12.22° C | 63% | 1021.2 hPa | 0 mm | - | - | - |
| 1777589937 | 12.22° C | 62% | 1021.2 hPa | 0 mm | - | - | - |
| 1777588798 | 12.78° C | 61% | 1021.3 hPa | 0 mm | - | - | - |
| 1777587659 | 12.78° C | 60% | 1021.4 hPa | 0 mm | - | - | - |
| 1777586518 | 12.78° C | 58% | 1021.3 hPa | 0 mm | - | - | - |
| 1777585377 | 12.78° C | 57% | 1021.2 hPa | 0 mm | - | - | - |
| 1777584237 | 13.33° C | 55% | 1021.2 hPa | 0 mm | - | - | - |
| 1777583098 | 13.33° C | 52% | 1021.2 hPa | 0 mm | - | - | - |
| 1777581957 | 13.89° C | 47% | 1021.2 hPa | 0 mm | - | - | - |
* Rain latest hour (hover to see other rain measurements)
** Current wind speed in m/s (hover to see current wind gust speed)